Location: Unspecified
(0.0000°N, 0.0000°E)
Time: 14:49:12
(UTC+00:00)

Transit 2A Rocket - All Passes

Search period start: 21 February 2019 00:00
Search period end: 03 March 2019 00:00
Orbit: 584 x 919 km, 66.7° (Epoch: 21 February)

Date Brightness Start Highest point End Pass type
(mag) Time Alt. Az. Time Alt. Az. Time Alt. Az.
21 Feb - 02:07:42 10° NNW 02:13:32 85° ENE 02:18:53 10° SSE night (unlit)
21 Feb - 12:58:27 10° SE 13:00:02 12° ESE 13:01:38 10° E daylight
21 Feb - 14:38:01 10° SW 14:42:11 33° WNW 14:46:42 10° N daylight
22 Feb - 01:25:37 10° N 01:31:03 41° ENE 01:36:06 10° SE night (unlit)
22 Feb - 03:10:33 10° WNW 03:13:17 14° WSW 03:15:55 10° SW night (unlit)
22 Feb - 13:55:08 10° SSW 13:59:43 77° WNW 14:04:45 10° NNE daylight
23 Feb - 00:44:20 10° NNE 00:48:31 21° ENE 00:52:30 10° ESE night (unlit)
23 Feb - 02:26:05 10° NW 02:30:55 29° WSW 02:35:27 10° SSW night (unlit)
23 Feb - 13:12:56 10° S 13:17:19 45° ESE 13:22:06 10° NE daylight
24 Feb - 01:42:53 10° NNW 01:48:33 60° WSW 01:53:45 10° S night (unlit)
24 Feb - 12:31:34 10° SSE 12:34:58 20° ESE 12:38:34 10° ENE daylight
24 Feb - 14:13:48 10° WSW 14:17:16 20° WNW 14:20:57 10° NNW daylight
25 Feb - 01:00:23 10° NNW 01:06:08 67° ENE 01:11:24 10° SSE night (unlit)
25 Feb - 13:30:19 10° SW 13:34:44 44° WNW 13:39:34 10° N daylight
26 Feb - 00:18:32 10° N 00:23:38 32° ENE 00:28:23 10° SE night (unlit)
26 Feb - 02:02:16 10° WNW 02:05:54 18° WSW 02:09:22 10° SSW night (unlit)
26 Feb - 12:47:41 10° SSW 12:52:18 81° ESE 12:57:22 10° NNE daylight
26 Feb - 23:37:42 10° NNE 23:41:05 16° ENE 23:44:19 10° ESE night (unlit)
27 Feb - 01:18:22 10° NW 01:23:33 36° WSW 01:28:20 10° S night (unlit)
27 Feb - 12:05:43 10° S 12:09:55 34° ESE 12:14:28 10° NE daylight
27 Feb - 13:50:31 10° W 13:52:22 12° WNW 13:54:17 10° NW daylight
28 Feb - 00:35:26 10° NNW 00:41:10 77° WSW 00:46:24 10° SSE night (unlit)
28 Feb - 11:24:47 10° SE 11:27:34 16° ESE 11:30:29 10° ENE daylight
28 Feb - 13:05:51 10° SW 13:09:48 26° WNW 13:14:03 10° NNW daylight
28 Feb - 23:53:09 10° N 23:58:43 52° ENE 00:03:50 10° SE night (unlit)
01 Mar - 01:40:40 10° WSW 01:40:53 10° WSW 01:41:07 10° WSW night (unlit)
01 Mar - 12:22:42 10° SSW 12:27:18 59° WNW 12:32:21 10° N daylight
01 Mar - 23:11:33 10° NNE 23:16:12 25° ENE 23:20:32 10° ESE night (unlit)
02 Mar - 00:54:15 10° WNW 00:58:31 22° WSW 01:02:32 10° SSW night (unlit)
02 Mar - 11:40:18 10° S 11:44:53 61° ESE 11:49:54 10° NNE daylight
02 Mar - 22:31:30 10° NE 22:33:37 12° ENE 22:35:41 10° E night (unlit)
